This is the latest recevied weather packets stored in our database for station/object EA8BQU-10. If no packets are shown the sender has not sent any weather packets the latest 10 day(s).
| Time | Temp. | Humidity | Pressure | Rain* | Wind** | Luminosity | Snow |
|---|---|---|---|---|---|---|---|
| 1776957322 | 19.44° C | 98% | 1016.3 hPa | - | - | - | - |
| 1776956422 | 19.44° C | 98% | 1016.4 hPa | - | - | - | - |
| 1776955521 | 19.44° C | 99% | 1016.4 hPa | - | - | - | - |
| 1776954618 | 19.44° C | 98% | 1016.5 hPa | - | - | - | - |
| 1776953718 | 19.44° C | 99% | 1016.4 hPa | - | - | - | - |
| 1776952817 | 13.89° C | 100% | 1008.4 hPa | - | - | - | - |
| 1776951916 | 18.89° C | 95% | 1016.5 hPa | - | - | - | - |
| 1776951016 | 18.89° C | 94% | 1016.6 hPa | - | - | - | - |
| 1776950116 | 19.44° C | 93% | 1016.7 hPa | - | - | - | - |
| 1776949215 | 19.44° C | 94% | 1016.8 hPa | - | - | - | - |
| 1776948314 | 18.89° C | 94% | 1016.7 hPa | - | - | - | - |
| 1776947414 | 19.44° C | 92% | 1016.7 hPa | - | - | - | - |
| 1776946513 | 19.44° C | 93% | 1016.9 hPa | - | - | - | - |
| 1776945613 | 19.44° C | 92% | 1017 hPa | - | - | - | - |
| 1776944711 | 19.44° C | 92% | 1017 hPa | - | - | - | - |
| 1776943827 | 19.44° C | 91% | 1017.2 hPa | - | - | - | - |
| 1776942927 | 19.44° C | 93% | 1017.3 hPa | - | - | - | - |
| 1776942027 | 19.44° C | 90% | 1017.2 hPa | - | - | - | - |
| 1776941126 | 19.44° C | 90% | 1017.2 hPa | - | - | - | - |
| 1776940226 | 19.44° C | 87% | 1017.1 hPa | - | - | - | - |
| 1776939325 | 19.44° C | 82% | 1017.2 hPa | - | - | - | - |
| 1776938425 | 19.44° C | 83% | 1017 hPa | - | - | - | - |
| 1776937525 | 19.44° C | 86% | 1017 hPa | - | - | - | - |
| 1776936625 | 19.44° C | 91% | 1016.8 hPa | - | - | - | - |
| 1776935725 | 19.44° C | 90% | 1016.6 hPa | - | - | - | - |
* Rain since midnight (hover to see other rain measurements)
** Current wind speed in m/s (hover to see current wind gust speed)